Location: Bazugues
(43.4465°N, 0.3432°E)
Time: 06:35:16
(UTC+00:00)

Cosmos 332 Rocket - Pass Details

Date: 12 January 2026
Orbit: 672 x 693 km, 74.0° (Epoch: 10 February)

Event Time Altitude Azimuth Distance (km) Brightness Sun altitude
Rises 18:56:51 0° 335° (NNW) 3,038 7.3 -23.5°
Reaches altitude 10° 18:59:11 10° 331° (NNW) 2,122 6.5 -23.9°
Maximum altitude 19:03:50 54° 255° (WSW) 829 4.4 -24.7°
Drops below altitude 10° 19:08:28 10° 178° (S) 2,119 6.3 -25.5°
Sets 19:10:48 0° 174° (S) 3,033 7.1 -26.0°
